Location: Newark
(41.7772°N, 74.7403°W)
Time: 06:48:25
(UTC+00:00)

Vanguard 1 - All Passes

Search period start: 26 May 2020 00:00
Search period end: 05 June 2020 00:00
Orbit: 649 x 3834 km, 34.3° (Epoch: 23 May)

Date Brightness Start Highest point End Pass type
(mag) Time Alt. Az. Time Alt. Az. Time Alt. Az.
26 May - 08:13:52 10° SSE 08:23:12 16° SE 08:34:15 10° E visible
26 May - 10:27:23 10° SSW 10:44:48 46° SE 11:06:00 10° E daylight
26 May - 12:48:22 10° WSW 13:10:11 68° SSE 13:31:23 10° E daylight
26 May - 15:13:22 10° W 15:36:42 66° SSW 15:53:57 10° ESE daylight
26 May - 17:41:04 10° W 18:00:23 41° SW 18:13:05 10° SSE daylight
26 May - 20:16:54 10° WSW 20:19:58 11° WSW 20:22:47 10° SW daylight
27 May - 08:31:26 10° S 08:43:16 23° SE 08:58:12 10° E visible
27 May - 10:47:31 10° SW 11:05:35 52° SSE 11:27:35 10° E daylight
27 May - 13:09:24 10° WSW 13:31:33 70° S 13:52:33 10° E daylight
27 May - 15:34:49 10° W 15:57:52 62° SSW 16:14:39 10° SE daylight
27 May - 18:03:05 10° W 18:20:45 34° SW 18:32:48 10° SSE daylight
28 May - 08:50:10 10° S 09:03:26 30° SE 09:20:59 10° E visible
28 May - 11:07:56 10° SW 11:26:33 59° SSE 11:49:03 10° E daylight
28 May - 13:30:32 10° WSW 13:52:58 71° S 14:13:39 10° ESE daylight
28 May - 15:56:19 10° W 16:18:52 57° SSW 16:35:12 10° SE daylight
28 May - 18:25:28 10° W 18:40:57 27° SW 18:52:03 10° S daylight
29 May - 09:09:31 10° SSW 09:23:45 37° SE 09:43:12 10° E daylight
29 May - 11:28:33 10° WSW 11:47:40 64° SSE 12:10:26 10° E daylight
29 May - 13:51:45 10° W 14:14:21 70° S 14:34:40 10° ESE daylight
29 May - 16:17:54 10° W 16:39:43 50° SSW 16:55:30 10° SE daylight
29 May - 18:48:34 10° W 19:01:00 20° SW 19:10:34 10° SSW daylight
30 May - 07:16:49 10° SSE 07:23:41 14° ESE 07:31:57 10° E visible
30 May - 09:29:19 10° SSW 09:44:15 44° SE 10:05:05 10° E daylight
30 May - 11:49:19 10° WSW 12:08:55 68° SSE 12:31:46 10° E daylight
30 May - 14:13:01 10° W 14:35:42 67° SSW 14:55:35 10° ESE daylight
30 May - 16:39:36 10° W 17:00:22 43° SW 17:15:34 10° SSE daylight
30 May - 19:13:17 10° W 19:20:57 13° WSW 19:27:28 10° SSW daylight
31 May - 07:34:06 10° SSE 07:43:38 21° SE 07:56:19 10° E visible
31 May - 09:49:25 10° SW 10:04:55 51° SSE 10:26:47 10° E daylight
31 May - 12:10:15 10° WSW 12:30:16 70° S 12:53:04 10° E daylight
31 May - 14:34:21 10° W 14:56:56 63° SSW 15:16:21 10° SE daylight
31 May - 17:01:31 10° W 17:20:50 36° SW 17:35:17 10° SSE daylight
01 Jun - 07:52:46 10° S 08:03:43 27° SE 08:19:16 10° E visible
01 Jun - 10:09:47 10° SW 10:25:46 58° SSE 10:48:21 10° E daylight
01 Jun - 12:31:16 10° WSW 12:51:39 71° S 13:14:17 10° ESE daylight
01 Jun - 14:55:44 10° W 15:18:02 58° SSW 15:36:56 10° SE daylight
01 Jun - 17:23:48 10° W 17:41:09 29° SW 17:54:34 10° S daylight
02 Jun - 08:12:06 10° SSW 08:23:55 35° SE 08:41:35 10° E visible
02 Jun - 10:30:20 10° WSW 10:46:48 63° SSE 11:09:51 10° E daylight
02 Jun - 12:52:21 10° W 13:13:03 70° S 13:35:25 10° ESE daylight
02 Jun - 15:17:11 10° W 15:38:58 51° SSW 15:57:18 10° SE daylight
02 Jun - 17:46:42 10° W 18:01:19 22° SW 18:13:08 10° S daylight
03 Jun - 06:21:09 10° SE 06:24:45 11° ESE 06:28:48 10° ESE visible
03 Jun - 08:31:53 10° SSW 08:44:18 42° SE 09:03:33 10° E visible
03 Jun - 10:51:03 10° WSW 11:07:57 67° SSE 11:31:19 10° E daylight
03 Jun - 13:13:31 10° W 13:34:25 67° SSW 13:56:25 10° ESE daylight
03 Jun - 15:38:46 10° W 15:59:45 44° SW 16:17:22 10° SSE daylight
03 Jun - 18:10:55 10° W 18:21:24 16° SW 18:30:24 10° SSW daylight
04 Jun - 06:37:26 10° SSE 06:44:38 17° SE 06:54:12 10° E visible
04 Jun - 08:51:58 10° SW 09:04:52 49° SSE 09:25:19 10° E visible
04 Jun - 11:11:52 10° WSW 11:29:14 69° S 11:52:43 10° E daylight
04 Jun - 13:34:42 10° W 13:55:41 63° SSW 14:17:16 10° SE daylight
04 Jun - 16:00:34 10° W 16:20:21 37° SW 16:37:05 10° SSE daylight
